Preview of NWS' New Version of Forecast
This preview is not operational and should not be used for support decisions.

Regional Weather Roundup (RWR)

Issued by National Weather Service (NWS)

                            
000
ASUS43 KLSX 251257
RWRMO 

WEATHER SUMMARY FOR MISSOURI
NATIONAL WEATHER SERVICE SPRINGFIELD MO
800 AM CDT SAT MAY 25 2019

NOTE: "FAIR" INDICATES FEW OR NO CLOUDS BELOW 12,000 FEET WITH NO
       SIGNIFICANT WEATHER AND/OR OBSTRUCTIONS TO VISIBILITY.
       CURRENT SKY AND/OR WEATHER CONDITIONS ARE NOT AVAILABLE FOR
       CHILLICOTHE AND FARMINGTON.

MOZ001>031-035>038-043-044-053-054-251400-
...NORTHERN AND WESTERN MISSOURI...
  
CITY           SKY/WX    TMP DP  RH WIND       PRES   REMARKS
KANSAS CTY INT CLOUDY    67  63  87 S10       29.98R                  
LEE'S SUMMIT   PTSUNNY   67  61  81 SW21G33   30.00R                  
ST JOSEPH      MOSUNNY   66  63  90 S7        29.95R                  
CHILLICOTHE      N/A     68  64  87 SW7       29.97R                  
     
$$
MOZ066>068-077>081-088>096-101>105-251400-
...SOUTHWEST MISSOURI...
  
CITY           SKY/WX    TMP DP  RH WIND       PRES   REMARKS
SPRINGFIELD    MOSUNNY   68  64  87 S8        30.06R                  
JOPLIN         CLOUDY    67  64  90 S8        30.05R                  
BRANSON        MOSUNNY   68  64  88 CALM      30.09R                  
               
$$
MOZ032>034-039>042-045>050-055>058-069>072-251400-
...CENTRAL MISSOURI...  
  
CITY           SKY/WX    TMP DP  RH WIND       PRES   REMARKS
COLUMBIA       NOT AVBL                                               
ROLLA          PTSUNNY   68  63  84 S12       30.03R                  
SEDALIA        CLOUDY    64  64 100 SW13G22   30.02R                  
WARRENSBURG    CLOUDY    66  63  88 S14       30.00S                  
               
$$
MOZ051-052-059>065-251400-
...EAST CENTRAL MISSOURI...
  
CITY           SKY/WX    TMP DP  RH WIND       PRES   REMARKS
ST LOUIS INTL  CLOUDY    75  65  70 S9        29.97F                  
                   
$$
MOZ072>076-082>087-097>100-106>115-251400-
...SOUTH CENTRAL AND SOUTHEAST MISSOURI...
  
CITY           SKY/WX    TMP DP  RH WIND       PRES   REMARKS
CAPE GIRARDEAU FAIR      76  65  68 S12       30.03F                  
POPLAR BLUFF   FAIR      74  68  81 S12       30.01F                  
WEST PLAINS    PTSUNNY   70  65  84 S3        30.09R                  
                                       
$$